Time,TemperatureF,DewpointF,PressureIn,WindDirection,WindDirectionDegrees,WindSpeedMPH,WindSpeedGustMPH,Humidity,HourlyPrecipIn,Conditions,Clouds,dailyrainin,SoftwareType,DateUTC
2013-03-27 00:03:00,50.5,43.2,29.96,ESE,113,0.0,2.9,76,0.00,,,0.00,WUHU216HW,2013-03-27 07:03:00,
2013-03-27 00:09:00,50.5,43.2,29.96,East,90,0.0,1.1,76,0.00,,,0.00,WUHU216HW,2013-03-27 07:09:00,
2013-03-27 00:14:00,50.5,43.2,29.95,SE,135,0.0,0.0,76,0.00,,,0.00,WUHU216HW,2013-03-27 07:14:00,
2013-03-27 00:19:00,50.5,43.2,29.96,SE,135,0.0,0.0,76,0.00,,,0.00,WUHU216HW,2013-03-27 07:19:00,
2013-03-27 00:24:00,50.5,43.2,29.96,SE,135,2.6,2.6,76,0.00,,,0.00,WUHU216HW,2013-03-27 07:24:00,
2013-03-27 00:29:00,50.3,43.0,29.96,ESE,113,0.0,4.0,76,0.00,,,0.00,WUHU216HW,2013-03-27 07:29:00,
2013-03-27 00:34:00,50.3,43.3,29.95,SE,135,3.5,4.0,77,0.00,,,0.00,WUHU216HW,2013-03-27 07:34:00,
2013-03-27 00:39:00,50.3,43.3,29.95,SSE,158,1.7,3.5,77,0.00,,,0.00,WUHU216HW,2013-03-27 07:39:00,
2013-03-27 00:44:00,50.1,43.5,29.95,ESE,113,4.9,5.5,78,0.00,,,0.00,WUHU216HW,2013-03-27 07:44:00,
2013-03-27 00:49:00,50.1,43.5,29.95,SE,135,1.7,5.5,78,0.00,,,0.00,WUHU216HW,2013-03-27 07:49:00,
2013-03-27 00:54:00,50.1,43.5,29.95,ESE,113,5.5,5.5,78,0.00,,,0.00,WUHU216HW,2013-03-27 07:54:00,
2013-03-27 00:59:00,50.0,43.3,29.95,SSE,158,3.1,5.5,78,0.00,,,0.00,WUHU216HW,2013-03-27 07:59:00,
2013-03-27 01:05:00,49.8,43.5,29.95,SSE,158,2.4,5.5,79,0.00,,,0.00,WUHU216HW,2013-03-27 08:05:00,
2013-03-27 01:10:00,49.8,43.5,29.95,SE,135,3.1,5.1,79,0.00,,,0.00,WUHU216HW,2013-03-27 08:10:00,
2013-03-27 01:15:00,49.8,43.5,29.95,ESE,113,0.8,5.8,79,0.00,,,0.00,WUHU216HW,2013-03-27 08:15:00,
2013-03-27 01:20:00,50.0,43.7,29.95,SE,135,5.5,5.8,79,0.00,,,0.00,WUHU216HW,2013-03-27 08:20:00,
2013-03-27 01:25:00,50.0,44.0,29.95,SSE,158,2.2,5.5,80,0.00,,,0.00,WUHU216HW,2013-03-27 08:25:00,
2013-03-27 01:30:00,49.8,43.8,29.95,SE,135,4.0,4.0,80,0.00,,,0.00,WUHU216HW,2013-03-27 08:30:00,
2013-03-27 01:35:00,50.0,44.0,29.95,SSE,158,1.3,4.0,80,0.00,,,0.00,WUHU216HW,2013-03-27 08:35:00,
2013-03-27 01:40:00,50.0,44.0,29.95,WSW,248,4.9,4.9,80,0.00,,,0.00,WUHU216HW,2013-03-27 08:40:00,
2013-03-27 01:45:00,50.0,44.0,29.95,SSW,203,2.2,4.9,80,0.00,,,0.00,WUHU216HW,2013-03-27 08:45:00,
2013-03-27 01:50:00,50.0,44.0,29.95,WSW,248,0.0,2.4,80,0.00,,,0.00,WUHU216HW,2013-03-27 08:50:00,
2013-03-27 01:55:00,49.8,43.8,29.95,SW,225,0.0,4.4,80,0.00,,,0.00,WUHU216HW,2013-03-27 08:55:00,
2013-03-27 02:00:00,49.8,43.8,29.95,SW,225,0.0,4.4,80,0.00,,,0.00,WUHU216HW,2013-03-27 09:00:00,
2013-03-27 02:05:00,49.8,43.8,29.95,SSE,158,1.5,5.3,80,0.00,,,0.00,WUHU216HW,2013-03-27 09:05:00,
2013-03-27 02:10:00,49.8,43.8,29.95,SSW,203,0.0,5.3,80,0.00,,,0.00,WUHU216HW,2013-03-27 09:10:00,
2013-03-27 02:15:00,49.8,43.8,29.95,South,180,0.0,1.5,80,0.00,,,0.00,WUHU216HW,2013-03-27 09:15:00,
2013-03-27 02:20:00,50.0,44.0,29.95,SSW,203,0.8,1.1,80,0.00,,,0.00,WUHU216HW,2013-03-27 09:20:00,
2013-03-27 02:25:00,49.8,43.8,29.94,SW,225,1.5,3.1,80,0.00,,,0.00,WUHU216HW,2013-03-27 09:25:00,
2013-03-27 02:30:00,50.1,44.2,29.94,SW,225,0.0,3.1,80,0.00,,,0.00,WUHU216HW,2013-03-27 09:30:00,
2013-03-27 02:35:00,50.1,44.2,29.94,South,180,1.3,1.3,80,0.00,,,0.00,WUHU216HW,2013-03-27 09:35:00,
2013-03-27 02:40:00,50.0,44.0,29.94,SSW,203,0.0,1.3,80,0.00,,,0.00,WUHU216HW,2013-03-27 09:40:00,
2013-03-27 02:46:00,49.8,43.8,29.93,SSE,158,1.5,1.5,80,0.00,,,0.00,WUHU216HW,2013-03-27 09:46:00,
2013-03-27 02:51:00,49.8,43.5,29.93,SE,135,0.0,1.5,79,0.00,,,0.00,WUHU216HW,2013-03-27 09:51:00,
2013-03-27 02:56:00,49.8,43.5,29.93,SSE,158,0.0,1.5,79,0.00,,,0.00,WUHU216HW,2013-03-27 09:56:00,
2013-03-27 03:01:00,49.8,43.5,29.93,SE,135,0.0,0.8,79,0.00,,,0.00,WUHU216HW,2013-03-27 10:01:00,
2013-03-27 03:06:00,49.6,43.3,29.93,SE,135,0.4,0.8,79,0.00,,,0.00,WUHU216HW,2013-03-27 10:06:00,
2013-03-27 03:11:00,49.6,43.3,29.93,SE,135,0.0,2.2,79,0.00,,,0.00,WUHU216HW,2013-03-27 10:11:00,
2013-03-27 03:17:00,49.6,43.3,29.93,SE,135,2.6,2.6,79,0.00,,,0.00,WUHU216HW,2013-03-27 10:17:00,
2013-03-27 03:22:00,49.6,43.3,29.93,SSE,158,0.0,2.6,79,0.00,,,0.00,WUHU216HW,2013-03-27 10:22:00,
2013-03-27 03:27:00,49.4,43.1,29.92,ESE,113,0.0,2.6,79,0.00,,,0.00,WUHU216HW,2013-03-27 10:27:00,
2013-03-27 03:32:00,49.2,42.9,29.93,SE,135,0.0,2.6,79,0.00,,,0.00,WUHU216HW,2013-03-27 10:32:00,
2013-03-27 03:37:00,49.2,42.9,29.93,SE,135,0.0,2.9,79,0.00,,,0.00,WUHU216HW,2013-03-27 10:37:00,
2013-03-27 03:42:00,49.2,42.9,29.93,SE,135,1.3,2.9,79,0.00,,,0.00,WUHU216HW,2013-03-27 10:42:00,
2013-03-27 03:47:00,49.2,42.9,29.93,SE,135,0.0,2.0,79,0.00,,,0.00,WUHU216HW,2013-03-27 10:47:00,
2013-03-27 03:52:00,49.2,42.9,29.93,SE,135,0.0,1.1,79,0.00,,,0.00,WUHU216HW,2013-03-27 10:52:00,
2013-03-27 03:57:00,49.2,42.9,29.93,SE,135,0.0,1.1,79,0.00,,,0.00,WUHU216HW,2013-03-27 10:57:00,
2013-03-27 04:02:00,49.4,43.1,29.93,SE,135,0.0,0.0,79,0.00,,,0.00,WUHU216HW,2013-03-27 11:02:00,
2013-03-27 04:07:00,49.4,43.1,29.93,SSE,158,0.0,0.6,79,0.00,,,0.00,WUHU216HW,2013-03-27 11:07:00,
2013-03-27 04:12:00,49.6,43.3,29.93,SSE,158,0.6,0.6,79,0.00,,,0.00,WUHU216HW,2013-03-27 11:12:00,
2013-03-27 04:17:00,49.6,43.3,29.93,SE,135,0.0,0.6,79,0.00,,,0.00,WUHU216HW,2013-03-27 11:17:00,
2013-03-27 04:22:00,49.6,43.7,29.93,SE,135,0.0,0.6,80,0.00,,,0.00,WUHU216HW,2013-03-27 11:22:00,
2013-03-27 04:27:00,49.6,43.7,29.93,SE,135,0.0,1.3,80,0.00,,,0.00,WUHU216HW,2013-03-27 11:27:00,
2013-03-27 04:32:00,49.6,43.7,29.93,South,180,0.0,1.3,80,0.00,,,0.00,WUHU216HW,2013-03-27 11:32:00,
2013-03-27 04:37:00,49.6,43.7,29.93,SSE,158,0.0,0.0,80,0.00,,,0.00,WUHU216HW,2013-03-27 11:37:00,
2013-03-27 04:42:00,49.6,43.7,29.93,SSE,158,0.0,0.0,80,0.00,,,0.00,WUHU216HW,2013-03-27 11:42:00,
2013-03-27 04:47:00,49.8,43.8,29.93,SSE,158,0.0,0.0,80,0.00,,,0.00,WUHU216HW,2013-03-27 11:47:00,
2013-03-27 04:53:00,49.8,43.5,29.93,SSE,158,0.0,0.0,79,0.00,,,0.00,WUHU216HW,2013-03-27 11:53:00,
2013-03-27 04:58:00,49.8,43.5,29.93,SSE,158,0.0,0.4,79,0.00,,,0.00,WUHU216HW,2013-03-27 11:58:00,
2013-03-27 05:03:00,49.8,43.5,29.93,SSE,158,0.0,0.4,79,0.00,,,0.00,WUHU216HW,2013-03-27 12:03:00,
2013-03-27 05:08:00,50.0,43.7,29.93,SSE,158,0.0,0.0,79,0.00,,,0.00,WUHU216HW,2013-03-27 12:08:00,
2013-03-27 05:13:00,50.1,43.8,29.93,SSE,158,0.4,0.4,79,0.00,,,0.00,WUHU216HW,2013-03-27 12:13:00,
2013-03-27 05:18:00,50.1,43.8,29.93,South,180,0.8,0.8,79,0.00,,,0.00,WUHU216HW,2013-03-27 12:18:00,
2013-03-27 05:23:00,50.1,43.8,29.93,SSE,158,0.0,1.1,79,0.00,,,0.00,WUHU216HW,2013-03-27 12:23:00,
2013-03-27 05:28:00,50.1,43.8,29.93,SE,135,3.3,3.3,79,0.00,,,0.00,WUHU216HW,2013-03-27 12:28:00,
2013-03-27 05:33:00,50.1,43.5,29.93,SSE,158,0.6,3.3,78,0.00,,,0.00,WUHU216HW,2013-03-27 12:33:00,
2013-03-27 05:38:00,50.1,43.5,29.93,SE,135,2.4,3.3,78,0.00,,,0.00,WUHU216HW,2013-03-27 12:38:00,
2013-03-27 05:43:00,50.1,43.5,29.93,SE,135,2.0,2.4,78,0.00,,,0.00,WUHU216HW,2013-03-27 12:43:00,
2013-03-27 05:48:00,50.1,43.5,29.93,SE,135,0.4,2.0,78,0.00,,,0.00,WUHU216HW,2013-03-27 12:48:00,
2013-03-27 05:53:00,50.1,43.5,29.93,ESE,113,1.7,2.0,78,0.00,,,0.00,WUHU216HW,2013-03-27 12:53:00,
2013-03-27 05:58:00,50.1,43.5,29.93,SE,135,0.0,2.2,78,0.00,,,0.00,WUHU216HW,2013-03-27 12:58:00,
2013-03-27 06:03:00,50.1,43.5,29.93,SSE,158,0.0,2.2,78,0.00,,,0.00,WUHU216HW,2013-03-27 13:03:00,
2013-03-27 06:09:00,50.1,43.5,29.93,SSE,158,0.0,0.0,78,0.00,,,0.00,WUHU216HW,2013-03-27 13:09:00,
2013-03-27 06:14:00,50.1,43.5,29.93,SSE,158,0.0,0.0,78,0.00,,,0.00,WUHU216HW,2013-03-27 13:14:00,
2013-03-27 06:19:00,50.1,43.5,29.93,SSE,158,0.0,0.0,78,0.00,,,0.00,WUHU216HW,2013-03-27 13:19:00,
2013-03-27 06:24:00,50.1,43.5,29.93,ESE,113,0.4,0.4,78,0.00,,,0.00,WUHU216HW,2013-03-27 13:24:00,
2013-03-27 06:29:00,50.1,43.5,29.93,SE,135,1.3,1.3,78,0.00,,,0.00,WUHU216HW,2013-03-27 13:29:00,
2013-03-27 06:34:00,50.1,43.5,29.93,SSE,158,1.5,2.4,78,0.00,,,0.00,WUHU216HW,2013-03-27 13:34:00,
2013-03-27 06:39:00,50.1,43.5,29.93,SSE,158,2.6,2.6,78,0.00,,,0.00,WUHU216HW,2013-03-27 13:39:00,
2013-03-27 06:44:00,50.1,43.5,29.94,ESE,113,4.9,4.9,78,0.00,,,0.00,WUHU216HW,2013-03-27 13:44:00,
2013-03-27 06:49:00,50.3,43.7,29.93,SSE,158,1.5,4.9,78,0.00,,,0.00,WUHU216HW,2013-03-27 13:49:00,
2013-03-27 06:54:00,50.3,43.7,29.93,SE,135,0.0,4.9,78,0.00,,,0.00,WUHU216HW,2013-03-27 13:54:00,
2013-03-27 06:59:00,50.3,43.7,29.94,SSE,158,0.8,3.5,78,0.00,,,0.00,WUHU216HW,2013-03-27 13:59:00,
2013-03-27 07:04:00,50.5,44.2,29.93,SE,135,0.0,3.5,79,0.00,,,0.00,WUHU216HW,2013-03-27 14:04:00,
2013-03-27 07:09:00,50.5,44.2,29.93,SE,135,1.3,1.7,79,0.00,,,0.00,WUHU216HW,2013-03-27 14:09:00,
2013-03-27 07:14:00,50.7,44.4,29.93,SE,135,0.0,3.1,79,0.00,,,0.00,WUHU216HW,2013-03-27 14:14:00,
2013-03-27 07:19:00,50.7,44.4,29.94,SE,135,0.8,3.1,79,0.00,,,0.00,WUHU216HW,2013-03-27 14:19:00,
2013-03-27 07:24:00,50.7,44.4,29.94,SSE,158,0.0,0.8,79,0.00,,,0.00,WUHU216HW,2013-03-27 14:24:00,
2013-03-27 07:29:00,50.7,44.4,29.94,SSE,158,0.4,2.0,79,0.00,,,0.00,WUHU216HW,2013-03-27 14:29:00,
2013-03-27 07:34:00,50.7,44.4,29.94,SE,135,1.5,2.0,79,0.00,,,0.00,WUHU216HW,2013-03-27 14:34:00,
2013-03-27 07:39:00,50.9,44.6,29.94,SE,135,2.0,2.4,79,0.00,,,0.00,WUHU216HW,2013-03-27 14:39:00,
2013-03-27 07:44:00,50.9,44.6,29.94,SSE,158,1.7,2.4,79,0.00,,,0.00,WUHU216HW,2013-03-27 14:44:00,
2013-03-27 07:49:00,51.0,44.7,29.95,SE,135,1.3,2.0,79,0.00,,,0.00,WUHU216HW,2013-03-27 14:49:00,
2013-03-27 07:55:00,51.2,44.9,29.95,SE,135,2.4,2.4,79,0.00,,,0.00,WUHU216HW,2013-03-27 14:55:00,
2013-03-27 08:00:00,51.4,45.1,29.95,SE,135,2.0,2.4,79,0.00,,,0.00,WUHU216HW,2013-03-27 15:00:00,
2013-03-27 08:05:00,51.4,45.1,29.94,SE,135,1.1,2.4,79,0.00,,,0.00,WUHU216HW,2013-03-27 15:05:00,
2013-03-27 08:10:00,51.6,45.3,29.95,SE,135,0.0,1.5,79,0.00,,,0.00,WUHU216HW,2013-03-27 15:10:00,
2013-03-27 08:15:00,51.6,45.3,29.95,SE,135,0.0,2.6,79,0.00,,,0.00,WUHU216HW,2013-03-27 15:15:00,
2013-03-27 08:20:00,51.6,45.3,29.95,SE,135,0.0,2.6,79,0.00,,,0.00,WUHU216HW,2013-03-27 15:20:00,
2013-03-27 08:25:00,51.9,45.6,29.95,SSE,158,2.9,2.9,79,0.00,,,0.00,WUHU216HW,2013-03-27 15:25:00,
2013-03-27 08:30:00,51.9,45.6,29.95,SSE,158,2.0,2.9,79,0.00,,,0.00,WUHU216HW,2013-03-27 15:30:00,
2013-03-27 08:35:00,52.1,45.8,29.95,SSE,158,3.1,3.1,79,0.00,,,0.00,WUHU216HW,2013-03-27 15:35:00,
2013-03-27 08:40:00,52.1,45.5,29.95,SSW,203,0.0,3.1,78,0.00,,,0.00,WUHU216HW,2013-03-27 15:40:00,
2013-03-27 08:45:00,52.3,45.6,29.95,SSW,203,0.0,3.1,78,0.00,,,0.00,WUHU216HW,2013-03-27 15:45:00,
2013-03-27 08:50:00,52.3,45.6,29.95,SW,225,0.0,1.1,78,0.00,,,0.00,WUHU216HW,2013-03-27 15:50:00,
2013-03-27 08:55:00,52.5,45.8,29.95,SW,225,1.1,1.7,78,0.00,,,0.00,WUHU216HW,2013-03-27 15:55:00,
2013-03-27 09:00:00,52.7,46.0,29.95,SW,225,2.9,2.9,78,0.00,,,0.00,WUHU216HW,2013-03-27 16:00:00,
2013-03-27 09:05:00,52.8,46.2,29.96,SW,225,1.1,2.9,78,0.00,,,0.00,WUHU216HW,2013-03-27 16:05:00,
2013-03-27 09:10:00,52.8,46.2,29.96,SW,225,0.0,2.9,78,0.00,,,0.00,WUHU216HW,2013-03-27 16:10:00,
2013-03-27 09:15:00,53.0,46.4,29.96,SSE,158,0.0,2.6,78,0.00,,,0.00,WUHU216HW,2013-03-27 16:15:00,
2013-03-27 09:20:00,53.2,46.2,29.95,SSE,158,1.3,2.2,77,0.00,,,0.00,WUHU216HW,2013-03-27 16:20:00,
2013-03-27 09:25:00,53.4,46.4,29.96,SSW,203,0.0,1.3,77,0.00,,,0.00,WUHU216HW,2013-03-27 16:25:00,
2013-03-27 09:30:00,53.4,46.5,29.96,SE,135,0.6,1.3,77,0.00,,,0.00,WUHU216HW,2013-03-27 16:30:00,
2013-03-27 09:35:00,53.7,46.3,29.96,SE,135,2.2,2.2,76,0.00,,,0.00,WUHU216HW,2013-03-27 16:35:00,
2013-03-27 09:41:00,53.9,46.5,29.96,SE,135,0.0,2.2,76,0.00,,,0.00,WUHU216HW,2013-03-27 16:41:00,
2013-03-27 09:46:00,54.3,46.8,29.96,ESE,113,3.1,3.1,76,0.00,,,0.00,WUHU216HW,2013-03-27 16:46:00,
2013-03-27 09:51:00,54.6,47.2,29.96,SSE,158,0.0,3.1,76,0.00,,,0.00,WUHU216HW,2013-03-27 16:51:00,
2013-03-27 09:56:00,55.0,47.5,29.96,SE,135,1.1,3.1,76,0.00,,,0.00,WUHU216HW,2013-03-27 16:56:00,
2013-03-27 10:01:00,55.2,47.9,29.96,SSE,158,0.0,1.7,76,0.00,,,0.00,WUHU216HW,2013-03-27 17:01:00,
2013-03-27 10:06:00,55.5,47.7,29.96,SW,225,1.7,1.7,75,0.00,,,0.00,WUHU216HW,2013-03-27 17:06:00,
2013-03-27 10:11:00,55.7,47.9,29.96,SW,225,0.0,1.7,75,0.00,,,0.00,WUHU216HW,2013-03-27 17:11:00,
2013-03-27 10:16:00,55.9,48.0,29.96,SSW,203,1.5,1.5,75,0.00,,,0.00,WUHU216HW,2013-03-27 17:16:00,
2013-03-27 10:21:00,56.1,47.8,29.96,North,0,0.0,1.5,74,0.00,,,0.00,WUHU216HW,2013-03-27 17:21:00,
2013-03-27 10:27:00,56.3,48.0,29.96,WSW,248,0.0,3.5,74,0.00,,,0.00,WUHU216HW,2013-03-27 17:27:00,
2013-03-27 10:32:00,56.4,47.8,29.96,West,270,0.0,3.5,73,0.00,,,0.00,WUHU216HW,2013-03-27 17:32:00,
2013-03-27 10:37:00,56.8,48.2,29.96,SE,135,1.5,4.6,73,0.00,,,0.00,WUHU216HW,2013-03-27 17:37:00,
2013-03-27 10:42:00,57.0,48.3,29.96,WNW,293,0.0,4.6,73,0.00,,,0.00,WUHU216HW,2013-03-27 17:42:00,
2013-03-27 10:47:00,57.3,48.7,29.97,WSW,248,0.0,2.4,73,0.00,,,0.00,WUHU216HW,2013-03-27 17:47:00,
2013-03-27 10:52:00,57.7,48.7,29.96,SW,225,0.0,2.4,72,0.00,,,0.00,WUHU216HW,2013-03-27 17:52:00,
2013-03-27 10:57:00,57.9,48.9,29.96,SSW,203,2.0,3.1,72,0.00,,,0.00,WUHU216HW,2013-03-27 17:57:00,
2013-03-27 11:02:00,58.1,49.1,29.96,WSW,248,0.0,3.1,72,0.00,,,0.00,WUHU216HW,2013-03-27 18:02:00,
2013-03-27 11:07:00,58.6,49.6,29.96,SW,225,2.6,2.6,72,0.00,,,0.00,WUHU216HW,2013-03-27 18:07:00,
2013-03-27 11:12:00,58.8,49.8,29.97,WNW,293,0.0,3.3,72,0.00,,,0.00,WUHU216HW,2013-03-27 18:12:00,
2013-03-27 11:17:00,58.8,49.8,29.97,SW,225,1.5,8.9,72,0.00,,,0.00,WUHU216HW,2013-03-27 18:17:00,
2013-03-27 11:22:00,58.8,49.8,29.97,SSW,203,1.5,8.9,72,0.00,,,0.00,WUHU216HW,2013-03-27 18:22:00,
2013-03-27 11:28:00,58.8,49.4,29.97,West,270,0.0,1.5,71,0.00,,,0.00,WUHU216HW,2013-03-27 18:28:00,
2013-03-27 11:33:00,58.8,49.4,29.97,SW,225,0.0,6.4,71,0.00,,,0.00,WUHU216HW,2013-03-27 18:33:00,
2013-03-27 11:38:00,59.1,49.8,29.97,SSW,203,0.0,6.4,71,0.00,,,0.00,WUHU216HW,2013-03-27 18:38:00,
2013-03-27 11:43:00,59.1,49.4,29.97,SW,225,6.2,6.2,70,0.00,,,0.00,WUHU216HW,2013-03-27 18:43:00,
2013-03-27 11:48:00,59.1,49.4,29.97,SSW,203,2.6,6.2,70,0.00,,,0.00,WUHU216HW,2013-03-27 18:48:00,
2013-03-27 11:53:00,59.1,49.4,29.97,SW,225,6.9,6.9,70,0.00,,,0.00,WUHU216HW,2013-03-27 18:53:00,
2013-03-27 11:58:00,59.0,49.2,29.97,SSW,203,0.0,6.9,70,0.00,,,0.00,WUHU216HW,2013-03-27 18:58:00,
2013-03-27 12:03:00,58.8,49.1,29.97,SW,225,0.0,1.5,70,0.00,,,0.00,WUHU216HW,2013-03-27 19:03:00,
2013-03-27 12:08:00,58.8,49.1,29.98,SW,225,0.0,0.0,70,0.00,,,0.00,WUHU216HW,2013-03-27 19:08:00,
2013-03-27 12:13:00,58.8,49.1,29.98,SW,225,0.8,1.3,70,0.00,,,0.00,WUHU216HW,2013-03-27 19:13:00,
2013-03-27 12:18:00,59.1,49.4,29.97,SW,225,0.0,1.3,70,0.00,,,0.00,WUHU216HW,2013-03-27 19:18:00,
2013-03-27 12:23:00,59.1,49.4,29.97,SW,225,0.0,2.4,70,0.00,,,0.00,WUHU216HW,2013-03-27 19:23:00,
2013-03-27 12:29:00,59.5,49.8,29.97,WSW,248,0.8,2.4,70,0.00,,,0.00,WUHU216HW,2013-03-27 19:29:00,
2013-03-27 12:34:00,59.7,50.0,29.98,SW,225,0.0,5.5,70,0.00,,,0.00,WUHU216HW,2013-03-27 19:34:00,
2013-03-27 12:39:00,59.9,50.1,29.98,SSW,203,4.9,5.5,70,0.00,,,0.00,WUHU216HW,2013-03-27 19:39:00,
2013-03-27 12:44:00,60.0,50.3,29.98,SW,225,0.0,4.9,70,0.00,,,0.00,WUHU216HW,2013-03-27 19:44:00,
2013-03-27 12:49:00,60.0,50.3,29.98,SSW,203,4.0,4.9,70,0.00,,,0.00,WUHU216HW,2013-03-27 19:49:00,
2013-03-27 12:54:00,60.0,50.3,29.97,SSW,203,3.8,4.0,70,0.00,,,0.00,WUHU216HW,2013-03-27 19:54:00,
2013-03-27 12:59:00,60.0,50.3,29.97,SW,225,1.5,3.8,70,0.00,,,0.00,WUHU216HW,2013-03-27 19:59:00,
2013-03-27 13:04:00,60.4,50.7,29.97,SW,225,6.0,6.0,70,0.00,,,0.00,WUHU216HW,2013-03-27 20:04:00,
2013-03-27 13:09:00,60.4,50.7,29.97,SW,225,4.4,6.0,70,0.00,,,0.00,WUHU216HW,2013-03-27 20:09:00,
2013-03-27 13:14:00,60.6,50.9,29.98,SW,225,2.2,4.4,70,0.00,,,0.00,WUHU216HW,2013-03-27 20:14:00,
2013-03-27 13:19:00,60.6,50.9,29.97,SSW,203,6.2,6.2,70,0.00,,,0.00,WUHU216HW,2013-03-27 20:19:00,
2013-03-27 13:24:00,60.6,50.9,29.97,SSW,203,2.9,6.2,70,0.00,,,0.00,WUHU216HW,2013-03-27 20:24:00,
2013-03-27 13:29:00,60.9,51.2,29.98,SW,225,5.5,6.2,70,0.00,,,0.00,WUHU216HW,2013-03-27 20:29:00,
2013-03-27 13:34:00,60.9,51.2,29.97,NNW,338,1.1,5.5,70,0.00,,,0.00,WUHU216HW,2013-03-27 20:34:00,
2013-03-27 13:39:00,60.9,51.2,29.98,West,270,0.6,3.3,70,0.00,,,0.00,WUHU216HW,2013-03-27 20:39:00,
2013-03-27 13:44:00,60.9,51.2,29.97,SSW,203,1.3,1.3,70,0.00,,,0.00,WUHU216HW,2013-03-27 20:44:00,
2013-03-27 13:49:00,60.9,51.2,29.97,SW,225,6.0,7.8,70,0.00,,,0.00,WUHU216HW,2013-03-27 20:49:00,
2013-03-27 13:54:00,60.9,51.2,29.97,West,270,0.0,7.8,70,0.00,,,0.00,WUHU216HW,2013-03-27 20:54:00,
2013-03-27 13:59:00,60.9,51.2,29.97,NW,315,0.0,6.0,70,0.00,,,0.00,WUHU216HW,2013-03-27 20:59:00,
2013-03-27 14:05:00,60.9,51.2,29.97,West,270,0.0,5.8,70,0.00,,,0.00,WUHU216HW,2013-03-27 21:05:00,
2013-03-27 14:10:00,60.6,50.9,29.97,NNW,338,0.6,5.8,70,0.00,,,0.00,WUHU216HW,2013-03-27 21:10:00,
2013-03-27 14:15:00,60.4,51.0,29.97,SW,225,4.2,4.9,71,0.00,,,0.00,WUHU216HW,2013-03-27 21:15:00,
2013-03-27 14:20:00,60.4,51.0,29.97,SSW,203,3.5,4.2,71,0.00,,,0.00,WUHU216HW,2013-03-27 21:20:00,
2013-03-27 14:25:00,60.0,50.7,29.97,SW,225,8.9,8.9,71,0.00,,,0.00,WUHU216HW,2013-03-27 21:25:00,
2013-03-27 14:30:00,60.0,50.7,29.98,WNW,293,0.0,8.9,71,0.00,,,0.00,WUHU216HW,2013-03-27 21:30:00,
2013-03-27 14:35:00,59.9,50.9,29.97,West,270,0.0,9.8,72,0.00,,,0.00,WUHU216HW,2013-03-27 21:35:00,
2013-03-27 14:40:00,59.7,50.7,29.97,NNW,338,1.1,9.8,72,0.00,,,0.00,WUHU216HW,2013-03-27 21:40:00,
2013-03-27 14:45:00,59.3,50.3,29.97,SW,225,1.3,1.3,72,0.00,,,0.00,WUHU216HW,2013-03-27 21:45:00,
2013-03-27 14:50:00,59.3,50.7,29.97,West,270,0.0,5.3,73,0.00,,,0.00,WUHU216HW,2013-03-27 21:50:00,
2013-03-27 14:55:00,58.8,50.1,29.97,South,180,0.0,6.2,73,0.00,,,0.00,WUHU216HW,2013-03-27 21:55:00,
2013-03-27 15:00:00,58.8,50.1,29.97,SW,225,0.0,6.2,73,0.00,,,0.00,WUHU216HW,2013-03-27 22:00:00,
2013-03-27 15:05:00,58.8,50.5,29.97,WNW,293,0.6,3.1,74,0.00,,,0.00,WUHU216HW,2013-03-27 22:05:00,
2013-03-27 15:10:00,58.8,50.5,29.97,SW,225,5.5,5.5,74,0.00,,,0.00,WUHU216HW,2013-03-27 22:10:00,
2013-03-27 15:16:00,58.8,50.5,29.98,SSW,203,5.5,5.5,74,0.00,,,0.00,WUHU216HW,2013-03-27 22:16:00,
2013-03-27 15:21:00,58.6,50.7,29.97,SW,225,2.4,5.5,75,0.00,,,0.00,WUHU216HW,2013-03-27 22:21:00,
2013-03-27 15:26:00,58.4,50.5,29.97,SW,225,9.6,9.6,75,0.00,,,0.00,WUHU216HW,2013-03-27 22:26:00,
2013-03-27 15:31:00,58.2,50.3,29.97,SSW,203,0.0,9.6,75,0.00,,,0.00,WUHU216HW,2013-03-27 22:31:00,
2013-03-27 15:36:00,58.2,50.3,29.97,SE,135,0.4,4.0,75,0.00,,,0.00,WUHU216HW,2013-03-27 22:36:00,
2013-03-27 15:41:00,58.1,50.1,29.97,WNW,293,1.5,7.3,75,0.00,,,0.00,WUHU216HW,2013-03-27 22:41:00,
2013-03-27 15:46:00,58.1,50.1,29.97,SW,225,0.6,7.3,75,0.00,,,0.00,WUHU216HW,2013-03-27 22:46:00,
2013-03-27 15:51:00,58.2,50.3,29.97,SW,225,3.8,3.8,75,0.00,,,0.00,WUHU216HW,2013-03-27 22:51:00,
2013-03-27 15:57:00,58.2,50.3,29.97,South,180,0.0,3.8,75,0.00,,,0.00,WUHU216HW,2013-03-27 22:57:00,
2013-03-27 16:02:00,58.2,50.3,29.97,SSW,203,0.0,14.0,75,0.00,,,0.00,WUHU216HW,2013-03-27 23:02:00,
2013-03-27 16:07:00,58.2,50.3,29.97,North,0,0.0,14.0,75,0.00,,,0.00,WUHU216HW,2013-03-27 23:07:00,
2013-03-27 16:12:00,58.4,50.5,29.97,North,0,1.5,6.4,75,0.00,,,0.00,WUHU216HW,2013-03-27 23:12:00,
2013-03-27 16:17:00,58.8,50.9,29.97,WNW,293,0.0,6.4,75,0.00,,,0.00,WUHU216HW,2013-03-27 23:17:00,
2013-03-27 16:22:00,58.8,50.9,29.97,NW,315,0.0,5.8,75,0.00,,,0.00,WUHU216HW,2013-03-27 23:22:00,
2013-03-27 16:27:00,58.8,50.9,29.97,WSW,248,2.0,3.3,75,0.00,,,0.00,WUHU216HW,2013-03-27 23:27:00,
2013-03-27 16:32:00,58.8,50.5,29.97,West,270,0.0,2.0,74,0.00,,,0.00,WUHU216HW,2013-03-27 23:32:00,
2013-03-27 16:37:00,58.8,50.5,29.97,SW,225,4.9,4.9,74,0.00,,,0.00,WUHU216HW,2013-03-27 23:37:00,
2013-03-27 16:42:00,58.8,50.5,29.98,WNW,293,1.3,4.9,74,0.00,,,0.00,WUHU216HW,2013-03-27 23:42:00,
2013-03-27 16:47:00,58.6,50.3,29.97,SW,225,0.0,4.9,74,0.00,,,0.00,WUHU216HW,2013-03-27 23:47:00,
2013-03-27 16:52:00,58.6,50.7,29.97,WNW,293,0.0,2.0,75,0.00,,,0.00,WUHU216HW,2013-03-27 23:52:00,
2013-03-27 16:57:00,58.4,50.5,29.97,SW,225,2.6,3.8,75,0.00,,,0.00,WUHU216HW,2013-03-27 23:57:00,
2013-03-27 17:02:00,58.1,49.8,29.97,SSW,203,0.8,3.8,74,0.00,,,0.00,WUHU216HW,2013-03-28 00:02:00,
2013-03-27 17:07:00,58.1,49.8,29.97,WSW,248,0.0,0.8,74,0.00,,,0.00,WUHU216HW,2013-03-28 00:07:00,
2013-03-27 17:12:00,58.1,50.1,29.97,SW,225,0.0,0.8,75,0.00,,,0.00,WUHU216HW,2013-03-28 00:12:00,
2013-03-27 17:17:00,57.9,50.0,29.96,South,180,6.4,6.4,75,0.00,,,0.00,WUHU216HW,2013-03-28 00:17:00,
2013-03-27 17:22:00,57.9,50.0,29.96,SSW,203,3.3,6.4,75,0.00,,,0.00,WUHU216HW,2013-03-28 00:22:00,
2013-03-27 17:27:00,57.7,49.8,29.96,WNW,293,0.0,6.4,75,0.00,,,0.00,WUHU216HW,2013-03-28 00:27:00,
2013-03-27 17:33:00,57.7,49.8,29.96,WSW,248,0.0,3.3,75,0.00,,,0.00,WUHU216HW,2013-03-28 00:33:00,
2013-03-27 17:38:00,57.7,50.1,29.97,West,270,0.0,5.5,76,0.00,,,0.00,WUHU216HW,2013-03-28 00:38:00,
2013-03-27 17:43:00,57.5,50.0,29.96,SW,225,0.0,5.5,76,0.00,,,0.00,WUHU216HW,2013-03-28 00:43:00,
2013-03-27 17:48:00,57.5,50.0,29.96,WSW,248,1.5,4.0,76,0.00,,,0.00,WUHU216HW,2013-03-28 00:48:00,
2013-03-27 17:53:00,57.3,49.8,29.96,SSW,203,1.7,3.5,76,0.00,,,0.00,WUHU216HW,2013-03-28 00:53:00,
2013-03-27 17:58:00,57.3,49.8,29.96,SSW,203,0.0,3.8,76,0.00,,,0.00,WUHU216HW,2013-03-28 00:58:00,
2013-03-27 18:03:00,57.3,49.8,29.97,SW,225,1.7,3.8,76,0.00,,,0.00,WUHU216HW,2013-03-28 01:03:00,
2013-03-27 18:08:00,57.3,49.8,29.97,NNE,23,0.8,2.2,76,0.00,,,0.00,WUHU216HW,2013-03-28 01:08:00,
2013-03-27 18:13:00,57.3,50.1,29.97,SSW,203,0.0,3.8,77,0.00,,,0.00,WUHU216HW,2013-03-28 01:13:00,
2013-03-27 18:18:00,57.0,49.8,29.97,West,270,0.0,3.8,77,0.00,,,0.00,WUHU216HW,2013-03-28 01:18:00,
2013-03-27 18:23:00,57.0,49.8,29.97,West,270,0.0,2.9,77,0.00,,,0.00,WUHU216HW,2013-03-28 01:23:00,
2013-03-27 18:28:00,57.0,49.8,29.97,SSW,203,0.0,0.0,77,0.00,,,0.00,WUHU216HW,2013-03-28 01:28:00,
2013-03-27 18:33:00,57.0,49.8,29.97,SSE,158,3.8,3.8,77,0.00,,,0.00,WUHU216HW,2013-03-28 01:33:00,
2013-03-27 18:38:00,56.8,50.0,29.97,WSW,248,0.0,3.8,78,0.00,,,0.00,WUHU216HW,2013-03-28 01:38:00,
2013-03-27 18:43:00,56.4,49.6,29.97,SW,225,0.0,2.6,78,0.00,,,0.00,WUHU216HW,2013-03-28 01:43:00,
2013-03-27 18:48:00,56.4,49.6,29.97,SW,225,0.0,3.3,78,0.00,,,0.00,WUHU216HW,2013-03-28 01:48:00,
2013-03-27 18:53:00,56.4,49.6,29.97,SW,225,0.0,3.3,78,0.00,,,0.00,WUHU216HW,2013-03-28 01:53:00,
2013-03-27 18:58:00,56.4,49.6,29.97,SSW,203,0.0,2.6,78,0.00,,,0.00,WUHU216HW,2013-03-28 01:58:00,
2013-03-27 19:03:00,56.4,49.6,29.97,SSW,203,2.9,2.9,78,0.00,,,0.00,WUHU216HW,2013-03-28 02:03:00,
2013-03-27 19:08:00,56.4,50.0,29.97,SSW,203,0.0,3.3,79,0.00,,,0.00,WUHU216HW,2013-03-28 02:08:00,
2013-03-27 19:13:00,56.3,49.8,29.97,SW,225,0.0,3.3,79,0.00,,,0.00,WUHU216HW,2013-03-28 02:13:00,
2013-03-27 19:19:00,56.3,49.8,29.97,SSW,203,0.0,3.8,79,0.00,,,0.00,WUHU216HW,2013-03-28 02:19:00,
2013-03-27 19:24:00,56.1,49.6,29.97,SW,225,0.0,3.8,79,0.00,,,0.00,WUHU216HW,2013-03-28 02:24:00,
2013-03-27 19:29:00,56.1,49.6,29.97,SW,225,0.0,0.0,79,0.00,,,0.00,WUHU216HW,2013-03-28 02:29:00,
2013-03-27 19:34:00,55.9,49.4,29.97,SW,225,0.0,0.0,79,0.00,,,0.00,WUHU216HW,2013-03-28 02:34:00,
2013-03-27 19:39:00,55.9,49.4,29.97,SSW,203,0.0,0.0,79,0.00,,,0.00,WUHU216HW,2013-03-28 02:39:00,
2013-03-27 19:44:00,55.9,49.4,29.98,North,0,0.0,0.0,79,0.00,,,0.00,WUHU216HW,2013-03-28 02:44:00,
2013-03-27 19:49:00,55.9,49.2,29.98,SSW,203,0.0,0.0,79,0.00,,,0.00,WUHU216HW,2013-03-28 02:49:00,
2013-03-27 19:54:00,55.7,49.2,29.98,SSW,203,1.1,1.1,79,0.00,,,0.00,WUHU216HW,2013-03-28 02:54:00,
2013-03-27 19:59:00,55.7,49.2,29.98,NW,315,0.0,1.1,79,0.00,,,0.00,WUHU216HW,2013-03-28 02:59:00,
2013-03-27 20:04:00,55.5,49.1,29.98,South,180,2.0,2.0,79,0.00,,,0.00,WUHU216HW,2013-03-28 03:04:00,
2013-03-27 20:09:00,55.5,49.1,29.98,SSW,203,0.0,2.0,79,0.00,,,0.00,WUHU216HW,2013-03-28 03:09:00,
2013-03-27 20:14:00,55.4,49.2,29.98,SW,225,0.6,2.0,80,0.00,,,0.00,WUHU216HW,2013-03-28 03:14:00,
2013-03-27 20:19:00,55.4,49.2,29.98,West,270,0.0,1.5,80,0.00,,,0.00,WUHU216HW,2013-03-28 03:19:00,
2013-03-27 20:24:00,55.2,49.1,29.98,West,270,0.0,0.0,80,0.00,,,0.00,WUHU216HW,2013-03-28 03:24:00,
2013-03-27 20:29:00,55.2,49.1,29.98,SSW,203,0.0,0.0,80,0.00,,,0.00,WUHU216HW,2013-03-28 03:29:00,
2013-03-27 20:34:00,55.2,49.1,29.98,SW,225,4.6,5.3,80,0.00,,,0.00,WUHU216HW,2013-03-28 03:34:00,
2013-03-27 20:39:00,55.2,49.1,29.98,SSW,203,0.0,5.3,80,0.00,,,0.00,WUHU216HW,2013-03-28 03:39:00,
2013-03-27 20:45:00,55.2,49.4,29.98,SW,225,0.0,4.6,81,0.00,,,0.00,WUHU216HW,2013-03-28 03:45:00,
2013-03-27 20:50:00,54.8,49.1,29.98,WSW,248,2.2,4.0,81,0.00,,,0.00,WUHU216HW,2013-03-28 03:50:00,
2013-03-27 20:55:00,54.6,48.9,29.98,South,180,0.6,4.0,81,0.00,,,0.00,WUHU216HW,2013-03-28 03:55:00,
2013-03-27 21:00:00,54.5,48.7,29.98,SW,225,6.9,6.9,81,0.00,,,0.00,WUHU216HW,2013-03-28 04:00:00,
2013-03-27 21:01:00,54.5,49.1,29.99,SSW,203,1.5,6.9,82,0.00,,,0.00,WUHU216HW,2013-03-28 04:01:00,
2013-03-27 21:07:00,54.3,48.9,29.99,SSW,203,3.3,6.9,82,0.00,,,0.00,WUHU216HW,2013-03-28 04:07:00,
2013-03-27 21:12:00,54.3,48.9,29.99,SSW,203,0.0,3.3,82,0.00,,,0.00,WUHU216HW,2013-03-28 04:12:00,
2013-03-27 21:17:00,54.3,48.9,29.99,WSW,248,1.1,3.5,82,0.00,,,0.00,WUHU216HW,2013-03-28 04:17:00,
2013-03-27 21:22:00,54.3,48.9,29.99,SW,225,0.0,3.5,82,0.00,,,0.00,WUHU216HW,2013-03-28 04:22:00,
2013-03-27 21:27:00,54.3,48.9,29.99,SSW,203,0.0,2.6,82,0.00,,,0.00,WUHU216HW,2013-03-28 04:27:00,
2013-03-27 21:32:00,54.3,49.2,29.99,SSW,203,2.0,2.6,83,0.00,,,0.00,WUHU216HW,2013-03-28 04:32:00,
2013-03-27 21:37:00,54.1,49.0,29.99,SW,225,0.8,2.0,83,0.00,,,0.00,WUHU216HW,2013-03-28 04:37:00,
2013-03-27 21:42:00,54.1,49.0,29.99,SSW,203,4.0,4.0,83,0.00,,,0.00,WUHU216HW,2013-03-28 04:42:00,
2013-03-27 21:47:00,54.1,49.3,30.00,SW,225,4.2,4.2,84,0.00,,,0.00,WUHU216HW,2013-03-28 04:47:00,
2013-03-27 21:52:00,53.9,49.2,30.00,SW,225,3.8,4.2,84,0.00,,,0.00,WUHU216HW,2013-03-28 04:52:00,
2013-03-27 21:57:00,53.9,49.2,30.00,West,270,0.0,4.2,84,0.00,,,0.00,WUHU216HW,2013-03-28 04:57:00,
2013-03-27 22:02:00,53.9,49.2,30.00,SW,225,0.0,2.0,84,0.00,,,0.00,WUHU216HW,2013-03-28 05:02:00,
2013-03-27 22:07:00,54.1,49.3,29.99,SSW,203,0.0,0.0,84,0.00,,,0.00,WUHU216HW,2013-03-28 05:07:00,
2013-03-27 22:12:00,54.1,49.3,30.00,SW,225,0.8,0.8,84,0.00,,,0.00,WUHU216HW,2013-03-28 05:12:00,
2013-03-27 22:17:00,54.1,49.3,29.99,South,180,0.0,0.8,84,0.00,,,0.00,WUHU216HW,2013-03-28 05:17:00,
2013-03-27 22:22:00,54.1,49.3,30.00,SSW,203,1.5,1.5,84,0.00,,,0.00,WUHU216HW,2013-03-28 05:22:00,
2013-03-27 22:27:00,54.3,49.5,29.99,SSW,203,0.0,1.5,84,0.00,,,0.00,WUHU216HW,2013-03-28 05:27:00,
2013-03-27 22:33:00,55.0,50.5,30.00,SSW,203,0.0,0.0,85,0.00,,,0.00,WUHU216HW,2013-03-28 05:33:00,
2013-03-27 22:38:00,55.2,50.7,30.00,SSW,203,0.0,0.0,85,0.00,,,0.00,WUHU216HW,2013-03-28 05:38:00,
2013-03-27 22:43:00,55.5,51.0,30.00,SW,225,1.7,1.7,85,0.00,,,0.00,WUHU216HW,2013-03-28 05:43:00,
2013-03-27 22:48:00,55.5,51.0,30.00,West,270,0.0,1.7,85,0.00,,,0.00,WUHU216HW,2013-03-28 05:48:00,
2013-03-27 22:53:00,55.5,51.0,30.00,SW,225,0.0,1.7,85,0.00,,,0.00,WUHU216HW,2013-03-28 05:53:00,
2013-03-27 22:58:00,55.7,51.2,30.00,SSE,158,0.0,0.0,85,0.00,,,0.00,WUHU216HW,2013-03-28 05:58:00,
2013-03-27 23:03:00,55.7,50.9,30.00,SW,225,0.0,0.0,84,0.00,,,0.00,WUHU216HW,2013-03-28 06:03:00,
2013-03-27 23:08:00,55.7,50.9,30.00,SW,225,0.0,0.0,84,0.00,,,0.00,WUHU216HW,2013-03-28 06:08:00,
2013-03-27 23:13:00,55.7,50.6,30.00,SW,225,0.0,0.0,83,0.00,,,0.00,WUHU216HW,2013-03-28 06:13:00,
2013-03-27 23:18:00,55.7,50.6,30.00,SW,225,0.0,0.0,83,0.00,,,0.00,WUHU216HW,2013-03-28 06:18:00,
2013-03-27 23:23:00,55.5,50.4,30.00,South,180,0.0,0.0,83,0.00,,,0.00,WUHU216HW,2013-03-28 06:23:00,
2013-03-27 23:28:00,55.4,50.2,30.00,South,180,0.0,0.0,83,0.00,,,0.00,WUHU216HW,2013-03-28 06:28:00,
2013-03-27 23:33:00,55.2,50.0,30.00,NNW,338,0.0,0.0,83,0.00,,,0.00,WUHU216HW,2013-03-28 06:33:00,
2013-03-27 23:38:00,55.0,49.9,30.00,North,0,0.0,1.3,83,0.00,,,0.00,WUHU216HW,2013-03-28 06:38:00,
2013-03-27 23:43:00,55.0,49.9,30.00,SSW,203,0.0,1.3,83,0.00,,,0.00,WUHU216HW,2013-03-28 06:43:00,
2013-03-27 23:48:00,54.8,49.7,30.00,SSW,203,0.0,0.0,83,0.00,,,0.00,WUHU216HW,2013-03-28 06:48:00,
2013-03-27 23:54:00,54.6,49.5,29.99,SSW,203,0.0,0.0,83,0.00,,,0.00,WUHU216HW,2013-03-28 06:54:00,
2013-03-27 23:59:00,54.5,49.4,30.00,SW,225,0.0,0.6,83,0.00,,,0.00,WUHU216HW,2013-03-28 06:59:00,